Main page
METAR-TAF:

METAR-TAF

Airports :

A12-cpp, Netherlands

Oil platform

latitude: 55-23-57N, longitude: 3-48-37E, elevation: 33 m

Current weather observation

The report was made 23 minutes ago, at 06:55 UTC
Wind 18 kt from the South/Southwest, varying between South/Southeast and Southwest
Temperature 15°C
Humidity 82%
Pressure 1005 hPa
Visibility 10 km or more

METAR: EHAK 190655Z AUTO 21018KT 160V230 9999 SCT015/// SCT027/// BKN045/// 15/12 Q1005

Time: 09:18 (07:18 UTC)


TAF: missing

Weather observations and forecasts of more than 4000 airports (METAR and TAF reports).

The available stations are represented by yellow and red dots on the map.

Hover mouse over dot to see the name of the station.

Then click to see weather observations and forecasts.

To change the map : click on the green buttons with a black cross to zoom in, on the green button with a dash to zoom out, or on the green arrows for adjacent maps.


METAR-TAF: